This is the latest recevied weather packets stored in our database for station/object G6UYG-13. If no packets are shown the sender has not sent any weather packets the latest 1 day(s).
| Time | Temp. | Humidity | Pressure | Rain* | Wind** | Luminosity | Snow |
|---|---|---|---|---|---|---|---|
| 1778017653 | 8.89° C | 81% | 1013.1 hPa | 0 mm | 0 m/s | 0 W/m² | - |
| 1778017233 | 8.89° C | 80% | 1013 hPa | 0 mm | 0 m/s | 0 W/m² | - |
| 1778016813 | 8.89° C | 80% | 1013 hPa | 0 mm | 0 m/s | 0 W/m² | - |
| 1778016393 | 9.44° C | 80% | 1013 hPa | 0 mm | 0 m/s | 0 W/m² | - |
| 1778015973 | 9.44° C | 79% | 1013 hPa | 0 mm | 0 m/s | 0 W/m² | - |
| 1778015553 | 9.44° C | 79% | 1012.9 hPa | 0 mm | 0 m/s | 0 W/m² | - |
| 1778015133 | 9.44° C | 78% | 1012.9 hPa | 0 mm | 0 m/s | 0 W/m² | - |
| 1778014713 | 9.44° C | 78% | 1012.9 hPa | 0 mm | 0 m/s | 0 W/m² | - |
| 1778014293 | 9.44° C | 77% | 1012.9 hPa | 0 mm | 0 m/s | 0 W/m² | - |
| 1778013873 | 9.44° C | 77% | 1013 hPa | 0 mm | 0 m/s | 0 W/m² | - |
| 1778013453 | 9.44° C | 76% | 1012.8 hPa | 0 mm | 0.45 m/s, 67° | 0 W/m² | - |
| 1778013033 | 10° C | 75% | 1012.8 hPa | 0 mm | 0 m/s | 0 W/m² | - |
| 1778012613 | 10° C | 75% | 1012.8 hPa | 0 mm | 0.45 m/s, 43° | 0 W/m² | - |
| 1778012193 | 10° C | 75% | 1012.8 hPa | 0 mm | 0.45 m/s, 68° | 0 W/m² | - |
| 1778011773 | 10° C | 74% | 1012.8 hPa | 0 mm | 0.89 m/s, 47° | 0 W/m² | - |
| 1778011353 | 10.56° C | 74% | 1012.7 hPa | 0 mm | 0.45 m/s, 47° | 0 W/m² | - |
| 1778010933 | 10.56° C | 74% | 1012.7 hPa | 0 mm | 0.89 m/s, 44° | 0 W/m² | - |
| 1778010513 | 10.56° C | 73% | 1012.7 hPa | 0 mm | 0.89 m/s, 34° | 0 W/m² | - |
| 1778010093 | 10.56° C | 73% | 1012.5 hPa | 0 mm | 0.89 m/s, 63° | 0 W/m² | - |
| 1778009673 | 10.56° C | 73% | 1012.5 hPa | 0 mm | 0.89 m/s, 56° | 7 W/m² | - |
| 1778009253 | 11.11° C | 73% | 1012.4 hPa | 0 mm | 0.89 m/s, 45° | 11 W/m² | - |
| 1778008833 | 11.11° C | 72% | 1012.4 hPa | 0 mm | 1.34 m/s, 63° | 14 W/m² | - |
| 1778008413 | 11.11° C | 72% | 1012.3 hPa | 0 mm | 0.89 m/s, 89° | 19 W/m² | - |
| 1778008072 | 11.11° C | 72% | 1012.2 hPa | 0 mm | 0.45 m/s, 65° | 25 W/m² | - |
| 1778007993 | 11.11° C | 72% | 1012.2 hPa | 0 mm | 0.45 m/s, 65° | 25 W/m² | - |
* Rain latest hour (hover to see other rain measurements)
** Current wind speed in m/s (hover to see current wind gust speed)